Torna al catalogo

ELECTRON KICK STAGE R/B

AttivoVLEO
NORAD 65117·ROCKET BODY·🇺🇸 United States

Lanciato Aug 5, 2025 da Rocket Lab Launch Complex 1

Loading…

Prossimi Passaggi (prossime 24 ore)

TLE

AggiornatoSource: Space-Track

Epoca: Sep 14, 2026, 07:50 UTC

1 65117U 25169B   26257.32706226  .00003525  00000-0  27853-3 0  9996
2 65117  42.0098 243.1133 0007438  70.4113 289.7516 15.01983479 60832

Traccia ELECTRON KICK STAGE R/B in tempo reale con AllMySat

Download on the App Store